Regional Weather Roundup
Issued by NWS

Home | Current Version | Previous Version | Text Only | Print | Product List | Glossary On
Versions: 1 2 3 4 5 6 7 8 9 10 11 12 13 14 15 16 17 18 19 20 21 22 23 24 25 26 27 28 29 30 31 32 33 34 35 36 37 38 39 40 41 42 43 44 45 46 47 48 49 50
416
ASUS43 KMPX 211101
RWRMN
WEATHER ROUNDUP FOR MINNESOTA
NATIONAL WEATHER SERVICE TWIN CITIES/CHANHASSEN MN
600 AM CDT SAT APR 21 2018


NOTE: "FAIR" INDICATES FEW OR NO CLOUDS BELOW 12,000 FEET WITH NO
SIGNIFICANT WEATHER AND/OR OBSTRUCTIONS TO VISIBILITY. N/A MEANS
CURRENT SKY AND/OR WEATHER CONDITIONS ARE NOT AVAILABLE.

MNZ060>063-068>070-211200-
   Twin Cities Metro

CITY           SKY/WX    TMP DP  RH WIND       PRES   REMARKS
TWIN CITIES    MOCLDY    39  28  64 NE5       30.42S
ST PAUL        FAIR      35  28  75 CALM      30.44R
CRYSTAL        FAIR      34  27  75 CALM      30.41S
BLAINE         FAIR      34  27  75 CALM      30.41F
LAKEVILLE      FAIR      30  28  93 CALM      30.41S
EDEN PRAIRIE   FAIR      35  27  72 N3        30.41S
SOUTH ST PAUL  FAIR      36  29  76 CALM      30.42S
LAKE ELMO      FAIR      32  30  93 CALM      30.43S
$$
MNZ001>005-007-008-013>017-022>024-027-028-211200-
   Northwest Minnesota

CITY           SKY/WX    TMP DP  RH WIND       PRES   REMARKS
BEMIDJI        FAIR      26  22  85 CALM      30.38R
HALLOCK        MOCLDY    34  34 100 S9        30.32S WCI  26
ROSEAU         FAIR      32  28  86 S3        30.35S
WARROAD        FAIR      34  28  80 CALM      30.36S
THIEF RVR FALL FAIR      32  30  92 SE6       30.36S WCI  26
CROOKSTON      FAIR      34  32  93 S6        30.37S WCI  29
FOSSTON        FAIR      32  27  80 SE6       30.37S WCI  26
DETROIT LAKES  FAIR      32  30  93 CALM      30.38F
MOORHEAD       FAIR      32  28  86 SE6       30.38S WCI  26
PARK RAPIDS    FAIR      28  22  78 CALM      30.38R
MAHNOMEN       FAIR      33  29  86 SE7       30.37S WCI  26
$$
MNZ006-009>011-018-025>026-211200-
   North Central Minnesota

CITY           SKY/WX    TMP DP  RH WIND       PRES   REMARKS
BAUDETTE       FAIR      30  28  92 CALM      30.36S
FLAG ISLAND    FAIR      28  27  93 SE3       30.35S
INTL FALLS     FAIR      26  24  92 CALM      30.37R
WASKISH        FAIR      25  23  93 CALM      30.38S
BIG FORK       FAIR      25  21  86 CALM      30.38S
LONGVILLE      FAIR      23  19  86 CALM      30.40R
GRAND RAPIDS   FAIR      27  23  85 CALM      30.40F
CRANE LAKE     FAIR      21  19  93 CALM      30.40R
ORR            FAIR      28  21  74 CALM      30.35S
COOK           FAIR      27  21  80 CALM      30.38S
WALKER         FAIR      27  22  79 CALM      30.39R
$$
MNZ012-019>021-037-211200-
   Northeast Minnesota

CITY           SKY/WX    TMP DP  RH WIND       PRES   REMARKS
DULUTH         FAIR      35  19  52 NW6       30.38S WCI  30
ELY            FAIR      25  19  80 CALM      30.38S
HIBBING        FAIR      23  20  88 CALM      30.38S
EVELETH        FAIR      24  21  89 CALM      30.39F
DULUTH HARBOR  FAIR      34  23  64 S5        30.42S WCI  30
TWO HARBORS    FAIR      41  23  48 NW5       30.37S
SILVER BAY     FAIR      28  23  80 CALM      30.37S
GRAND MARAIS     N/A     29  23  78 CALM      30.40R
G MARAIS ARPRT FAIR      32  18  55 CALM      30.37S
$$
MNZ029>031-032-039>041-046>048-054>057-064-211200-
   West Central Minnesota

CITY           SKY/WX    TMP DP  RH WIND       PRES   REMARKS
FERGUS FALLS   FAIR      34  28  80 SE7       30.37F WCI  28
WHEATON        PTCLDY    32  30  93 SE7       30.39F WCI  26
MORRIS         CLOUDY    34  30  86 E6        30.37F WCI  29
ALEXANDRIA     FAIR      34  27  75 CALM      30.39F
ELBOW LAKE     FAIR      33  29  88 E6        30.39S WCI  27
WADENA         FAIR      28  28 100 CALM      30.39S FOG
GLENWOOD       FAIR      34  30  86 CALM      30.39F
APPLETON       CLOUDY    32  28  86 CALM      30.39S
BENSON         CLOUDY    30  27  86 SE3       30.41S
ORTONVILLE     CLOUDY    32  28  86 E5        30.38S WCI  27
MADISON        CLOUDY    36  34  93 E3        30.39R FOG
WILLMAR        FAIR      32  30  93 SE3       30.42S
$$
MNZ033>034-036-042>043-049>051-058-059-211200-
   Central Minnesota

CITY           SKY/WX    TMP DP  RH WIND       PRES   REMARKS
ST CLOUD       FAIR      28  26  92 CALM      30.41F
SAUK CENTRE    FAIR      29  28  97 CALM      30.40F
PAYNESVILLE    FAIR      31  30  99 CALM      30.40F
AITKIN         FAIR      21  19  93 CALM      30.40R
PINE RIVER     FAIR      23  19  86 CALM      30.43R
BRAINERD       FAIR      26  22  84 CALM      30.41R
STAPLES        FAIR      27  25  93 CALM      30.40S
LONG PRAIRIE   FAIR      30  30 100 CALM      30.41S FOG
LITTLE FALLS   FAIR      28  23  80 CALM      30.42S
LITCHFIELD     FAIR      34  30  86 CALM      30.41S
BUFFALO        FAIR      32  28  86 CALM      30.42F
MAPLE LAKE     FAIR      31  29  94 CALM      30.42S
HUTCHINSON     FAIR      33  32  94 CALM      30.43R
$$
MNZ037-044-045-052-053-211200-
   East Central Minnesota

CITY           SKY/WX    TMP DP  RH WIND       PRES   REMARKS
PRINCETON      FAIR      28  25  86 CALM      30.42F
MORA           FAIR      27  23  86 CALM      30.43S
CAMBRIDGE      FAIR      30  21  69 CALM      30.42F
RUSH CITY      FAIR      29  24  82 CALM      30.42F
MOOSE LAKE     FAIR      25  19  80 CALM      30.40S
HINCKLEY       FAIR      27  25  93 CALM      30.42S
CLOQUET        FAIR      28  19  69 CALM      30.39S
MCGREGOR       FAIR      27  23  86 CALM      30.41R
$$
MNZ071>073-080-081-089-090-097-098-211200-
   Southwest Minnesota

CITY           SKY/WX    TMP DP  RH WIND       PRES   REMARKS
MONTEVIDEO     CLOUDY    34  30  86 CALM      30.40R
GRANITE FALLS  CLOUDY    36  32  85 E7        30.41R
CANBY          CLOUDY    36  33  90 CALM      30.40R
MARSHALL       CLOUDY    38  29  70 S9        30.39R
REDWOOD FALLS  CLOUDY    34  29  82 SE8       30.40R WCI  27
OLIVIA         CLOUDY    36  30  80 SE3       30.40R
PIPESTONE      DRIZZLE  N/A N/A N/A S8        30.35F
WINDOM         DRIZZLE   37  19  48 CALM      30.38F
WORTHINGTON    CLOUDY    37  28  70 SE7       30.37F
JACKSON        CLOUDY    36  30  80 E3        30.38F
TRACY          CLOUDY    40  31  69 S6        30.38S
SLAYTON        DRIZZLE   35  31  85 SE3       30.38F
$$
MNZ065>067-074>077-082>085-091>093-211200-
   South Central Minnesota

CITY           SKY/WX    TMP DP  RH WIND       PRES   REMARKS
MANKATO        CLOUDY    36  29  75 CALM      30.42R
NEW ULM        CLOUDY    36  28  75 CALM      30.42R
ST JAMES       CLOUDY    36  30  80 CALM      30.41F
FAIRMONT       CLOUDY    35  29  78 N3        30.40F
GLENCOE        FAIR      34  31  88 CALM      30.41R
OWATONNA       MOCLDY    36  30  80 SE5       30.40F
WASECA         CLOUDY    36  30  80 CALM      30.42S
ALBERT LEA     CLOUDY    36  25  64 CALM      30.41S
$$
MNZ078>079-086>088-094>096-211200-
   Southeast Minnesota

CITY           SKY/WX    TMP DP  RH WIND       PRES   REMARKS
ROCHESTER      CLOUDY    38  25  59 VRB3      30.41R
RED WING       FAIR      30  27  86 CALM      30.42S
STANTON        FAIR      33  30  90 CALM      30.40S
DODGE CENTER   MOCLDY    36  27  69 CALM      30.41S
WINONA         FAIR      34  30  86 CALM      30.42R
AUSTIN         MOCLDY    36  27  69 CALM      30.42R
PRESTON        CLOUDY    35  27  71 NE3       30.41S
$$
ABBREVIATIONS USED IN REMARKS
   TC - TEMPERATURES IN CELSIUS
  WCI - WIND CHILL INDEX
   HX - HEAT INDEX
  VSB - VISIBILITY
$$




USA.gov is the U.S. government's official web portal to all federal, state and local government web resources and services.